User: anonymous   Login
Location: Unspecified
(0.0000°N, 0.0000°E)
Time: 01:16:24
(UTC+00:00)
Language:

Tiros 9 - Orbit

View from above orbital plane
View from above orbital plane
View from above satellite
View from above satellite

Ground track
Ground track

The orbit data is extracted from the following two-line orbital elements,

1   978U 65004A   18265.60290163 -.00000029 +00000-0 -20604-4 0  9997
2   978 096.4008 307.6231 1159131 020.7091 343.7216 12.10875848369733
Epoch (UTC): 22 September 2018 14:28:10
Eccentricity: 0.1159131
inclination: 96.4008°
perigee height: 704 km
apogee height: 2561 km
right ascension of ascending node: 307.6231°
argument of perigee: 20.7091°
revolutions per day: 12.10875848
mean anomaly at epoch: 343.7216°
orbit number at epoch: 36973

The dashed part of the orbit path shows where the satellite is in the earth's shadow,  

DLR